• In Portugal
  • List of Countries
  • For 7 days
  • Water Temperature
  • Satellite Maps
  • Weather Map
  • Weather Widgets
  • user-avatar
    Login

    Hourly Weather Lisbon

    Today, 18 July, Wednesday

    Time Temperature Precipitation Wind Pressure Humidity
    00:00 +17°C° 0 mm 5 mps 757 mmHg 88%
    01:00 +17°C° 0 mm 5 mps 757 mmHg 90%
    02:00 +16°C° 0 mm 5 mps 757 mmHg 92%
    03:00 +16°C° 0 mm 5 mps 757 mmHg 92%
    04:00 +17°C° 0 mm 4 mps 757 mmHg 92%
    05:00 +17°C° 0 mm 4 mps 757 mmHg 92%
    06:00 +19°C° 0 mm 4 mps 758 mmHg 82%
    07:00 +21°C° 0 mm 5 mps 758 mmHg 71%
    08:00 +23°C° 0 mm 5 mps 758 mmHg 61%
    09:00 +26°C° 0 mm 5 mps 758 mmHg 55%
    10:00 +27°C° 0 mm 5 mps 758 mmHg 48%
    11:00 +29°C° 0 mm 5 mps 759 mmHg 42%
    12:00 +29°C° 0 mm 6 mps 758 mmHg 42%
    13:00 +29°C° 0 mm 6 mps 758 mmHg 41%
    14:00 +29°C° 0 mm 6 mps 758 mmHg 41%
    15:00 +28°C° 0 mm 7 mps 758 mmHg 44%
    16:00 +27°C° 0 mm 7 mps 758 mmHg 48%
    17:00 +26°C° 0 mm 7 mps 758 mmHg 52%
    18:00 +23°C° 0 mm 6 mps 758 mmHg 60%
    19:00 +21°C° 0 mm 6 mps 758 mmHg 68%
    20:00 +19°C° 0 mm 5 mps 759 mmHg 76%
    21:00 +19°C° 0 mm 5 mps 759 mmHg 81%
    22:00 +17°C° 0 mm 5 mps 759 mmHg 85%
    23:00 +17°C° 0 mm 4 mps 759 mmHg 89%

    Tomorrow, 19 July, Thursday

    Time Temperature Precipitation Wind Pressure Humidity
    00:00 +17°C° 0 mm 4 mps 759 mmHg 90%
    01:00 +17°C° 0 mm 4 mps 759 mmHg 91%
    02:00 +17°C° 0 mm 4 mps 759 mmHg 92%
    03:00 +17°C° 0 mm 4 mps 759 mmHg 93%
    04:00 +17°C° 0 mm 4 mps 759 mmHg 93%
    05:00 +17°C° 0 mm 4 mps 759 mmHg 93%
    06:00 +19°C° 0 mm 4 mps 759 mmHg 83%
    07:00 +21°C° 0 mm 4 mps 759 mmHg 73%
    08:00 +23°C° 0 mm 5 mps 759 mmHg 63%
    09:00 +26°C° 0 mm 5 mps 759 mmHg 56%
    10:00 +27°C° 0 mm 5 mps 759 mmHg 49%
    11:00 +29°C° 0 mm 5 mps 759 mmHg 43%
    12:00 +29°C° 0 mm 6 mps 759 mmHg 43%
    13:00 +29°C° 0 mm 6 mps 759 mmHg 43%
    14:00 +29°C° 0 mm 7 mps 759 mmHg 43%
    15:00 +28°C° 0 mm 7 mps 759 mmHg 48%
    16:00 +27°C° 0 mm 7 mps 759 mmHg 54%
    17:00 +26°C° 0 mm 7 mps 759 mmHg 59%
    18:00 +24°C° 0 mm 7 mps 759 mmHg 68%
    19:00 +22°C° 0 mm 6 mps 759 mmHg 76%
    20:00 +21°C° 0 mm 6 mps 759 mmHg 84%
    21:00 +20°C° 0 mm 6 mps 759 mmHg 87%
    22:00 +20°C° 0 mm 5 mps 759 mmHg 89%
    23:00 +19°C° 0 mm 5 mps 760 mmHg 92%

    Day after tomorrow, 20 July, Friday

    Time Temperature Precipitation Wind Pressure Humidity
    00:00 +19°C° 0 mm 5 mps 759 mmHg 92%
    01:00 +19°C° 0 mm 5 mps 759 mmHg 92%
    02:00 +19°C° 0 mm 5 mps 759 mmHg 92%
    03:00 +19°C° 0 mm 6 mps 759 mmHg 91%
    04:00 +19°C° 0 mm 6 mps 759 mmHg 90%
    05:00 +19°C° 0 mm 6 mps 759 mmHg 89%
    06:00 +20°C° 0 mm 6 mps 759 mmHg 80%
    07:00 +22°C° 0 mm 6 mps 759 mmHg 70%
    08:00 +24°C° 0 mm 6 mps 760 mmHg 61%
    09:00 +26°C° 0 mm 7 mps 760 mmHg 55%
    10:00 +28°C° 0 mm 7 mps 760 mmHg 49%
    11:00 +29°C° 0 mm 7 mps 760 mmHg 43%
    12:00 +29°C° 0 mm 8 mps 759 mmHg 42%
    13:00 +29°C° 0 mm 8 mps 759 mmHg 41%
    14:00 +31°C° 0 mm 8 mps 759 mmHg 41%
    15:00 +28°C° 0 mm 8 mps 759 mmHg 44%
    16:00 +27°C° 0 mm 8 mps 759 mmHg 48%
    17:00 +26°C° 0 mm 8 mps 759 mmHg 51%
    18:00 +24°C° 0 mm 8 mps 759 mmHg 59%
    19:00 +22°C° 0 mm 7 mps 759 mmHg 66%
    20:00 +20°C° 0 mm 7 mps 760 mmHg 74%
    21:00 +20°C° 0 mm 7 mps 760 mmHg 76%
    22:00 +18°C° 0 mm 7 mps 760 mmHg 78%
    23:00 +18°C° 0 mm 7 mps 760 mmHg 80%

    21 July, Saturday

    Time Temperature Precipitation Wind Pressure Humidity
    00:00 +19°C° 0 mm 6 mps 759 mmHg 81%
    01:00 +19°C° 0 mm 6 mps 759 mmHg 83%
    02:00 +17°C° 0 mm 6 mps 759 mmHg 85%
    03:00 +17°C° 0 mm 6 mps 758 mmHg 86%
    04:00 +17°C° 0 mm 6 mps 758 mmHg 87%
    05:00 +17°C° 0 mm 6 mps 758 mmHg 89%
    06:00 +20°C° 0 mm 6 mps 759 mmHg 78%
    07:00 +22°C° 0 mm 6 mps 759 mmHg 67%
    08:00 +26°C° 0 mm 7 mps 759 mmHg 57%
    09:00 +27°C° 0 mm 7 mps 759 mmHg 50%
    10:00 +29°C° 0 mm 7 mps 759 mmHg 42%
    11:00 +32°C° 0 mm 7 mps 759 mmHg 35%
    12:00 +33°C° 0 mm 7 mps 759 mmHg 34%
    13:00 +33°C° 0 mm 7 mps 758 mmHg 32%
    14:00 +33°C° 0 mm 8 mps 758 mmHg 31%
    15:00 +32°C° 0 mm 8 mps 758 mmHg 35%
    16:00 +29°C° 0 mm 8 mps 758 mmHg 39%
    17:00 +28°C° 0 mm 8 mps 758 mmHg 43%
    18:00 +26°C° 0 mm 8 mps 758 mmHg 51%
    19:00 +23°C° 0 mm 7 mps 758 mmHg 59%
    20:00 +21°C° 0 mm 7 mps 758 mmHg 67%
    21:00 +20°C° 0 mm 6 mps 758 mmHg 73%
    22:00 +19°C° 0 mm 6 mps 758 mmHg 78%
    23:00 +19°C° 0 mm 6 mps 758 mmHg 83%

    22 July, Sunday

    Time Temperature Precipitation Wind Pressure Humidity
    00:00 +17°C° 0 mm 5 mps 758 mmHg 86%
    01:00 +17°C° 0 mm 5 mps 758 mmHg 89%
    02:00 +17°C° 0 mm 5 mps 757 mmHg 92%
    03:00 +17°C° 0 mm 5 mps 757 mmHg 93%
    04:00 +18°C° 0 mm 4 mps 757 mmHg 94%
    05:00 +18°C° 0 mm 4 mps 757 mmHg 95%
    06:00 +20°C° 0 mm 4 mps 757 mmHg 82%
    07:00 +23°C° 0 mm 4 mps 757 mmHg 70%
    08:00 +27°C° 0 mm 4 mps 757 mmHg 58%
    09:00 +29°C° 0 mm 4 mps 757 mmHg 50%
    10:00 +33°C° 0 mm 4 mps 757 mmHg 42%
    11:00 +35°C° 0 mm 4 mps 757 mmHg 34%
    12:00 +35°C° 0 mm 5 mps 756 mmHg 33%
    13:00 +36°C° 0 mm 5 mps 756 mmHg 33%
    14:00 +36°C° 0 mm 6 mps 756 mmHg 32%
    15:00 +34°C° 0 mm 6 mps 756 mmHg 36%
    16:00 +33°C° 0 mm 6 mps 756 mmHg 40%
    17:00 +30°C° 0 mm 6 mps 756 mmHg 44%
    18:00 +28°C° 0 mm 5 mps 756 mmHg 53%
    19:00 +25°C° 0 mm 5 mps 756 mmHg 62%
    20:00 +22°C° 0 mm 4 mps 756 mmHg 71%
    21:00 +21°C° 0 mm 4 mps 756 mmHg 75%
    22:00 +20°C° 0 mm 4 mps 756 mmHg 79%
    23:00 +19°C° 0 mm 3 mps 756 mmHg 83%

    23 July, Monday

    Time Temperature Precipitation Wind Pressure Humidity
    00:00 +19°C° 0 mm 3 mps 756 mmHg 86%
    01:00 +19°C° 0 mm 3 mps 756 mmHg 89%
    02:00 +18°C° 0 mm 3 mps 755 mmHg 91%
    03:00 +18°C° 0 mm 3 mps 755 mmHg 93%
    04:00 +18°C° 0 mm 3 mps 756 mmHg 94%
    05:00 +18°C° 0 mm 3 mps 756 mmHg 95%
    06:00 +20°C° 0 mm 3 mps 756 mmHg 85%
    07:00 +22°C° 0 mm 4 mps 756 mmHg 75%
    08:00 +25°C° 0 mm 4 mps 756 mmHg 64%
    09:00 +27°C° 0 mm 4 mps 756 mmHg 58%
    10:00 +28°C° 0 mm 5 mps 756 mmHg 51%
    11:00 +30°C° 0 mm 5 mps 756 mmHg 44%
    12:00 +30°C° 0 mm 5 mps 756 mmHg 44%
    13:00 +30°C° 0 mm 6 mps 756 mmHg 44%
    14:00 +30°C° 0 mm 6 mps 756 mmHg 45%
    15:00 +29°C° 0 mm 6 mps 756 mmHg 49%
    16:00 +27°C° 0 mm 6 mps 756 mmHg 53%
    17:00 +26°C° 0 mm 6 mps 756 mmHg 58%
    18:00 +23°C° 0 mm 6 mps 756 mmHg 65%
    19:00 +22°C° 0 mm 5 mps 757 mmHg 73%
    20:00 +20°C° 0 mm 5 mps 757 mmHg 80%
    21:00 +20°C° 0 mm 5 mps 757 mmHg 84%
    22:00 +19°C° 0 mm 4 mps 757 mmHg 87%
    23:00 +19°C° 0 mm 4 mps 757 mmHg 91%
    Show more